Regional Weather Roundup
Issued by NWS Columbia, SC

Home | Current Version | Previous Version | Text Only | Print | Product List | Glossary On
Versions: 1 2 3 4 5 6 7 8 9 10 11 12 13 14 15 16 17 18 19 20 21 22 23 24 25 26 27
000
ASUS42 KCAE 010410
RWRCAE
REGIONAL WEATHER ROUNDUP
NATIONAL WEATHER SERVICE COLUMBIA SC
1200 AM EDT WED JUN 01 2016

NOTE: "FAIR" INDICATES FEW OR NO CLOUDS BELOW 12,000 FEET WITH NO
SIGNIFICANT WEATHER AND/OR OBSTRUCTIONS TO VISIBILITY.

NOT ALL STATIONS ARE QUALITY CONTROLLED BY THE NATIONAL
WEATHER SERVICE. USE DATA WITH CAUTION...ESPECIALLY
DEWPOINT OBSERVATIONS.

SCZ001>056-GAZ040-063>065-077-010500-
...UPSTATE SOUTH CAROLINA...

CITY           SKY/WX    TMP DP  RH WIND       PRES   REMARKS
ANDERSON       CLEAR     71  63  75 NE3       29.99S
LIBERTY        CLEAR     68  64  89 NE6       30.00S
SPARTANBURG    CLEAR     68  63  83 N6        29.99S
CLEMSON        CLEAR     74  65  73 NE3       30.01S
GREENVILLE     CLEAR     70  63  78 N7        30.01S
GREENWOOD      CLEAR     71  64  78 CALM      29.99S
GREER          CLEAR     68  64  87 N5        29.99S
ROCK HILL      CLEAR     68  67  96 CALM      29.99S
CHESTER        CLEAR     68  66  94 CALM      29.99S
LAURENS        CLEAR     70  66  88 N3        29.98S


...CENTRAL SOUTH CAROLINA...

CITY           SKY/WX    TMP DP  RH WIND       PRES   REMARKS
COLUMBIA APT   CLOUDY    75  70  84 CALM      29.96R
COLUMBIA OWENS MOCLDY    76  69  79 CALM      29.97R
MCENTIRE ANGB  MOCLDY    73  71  93 CALM      29.96S
ORANGEBURG     MOCLDY    70  68  93 CALM      29.96F
SUMTER SHAW    PTCLDY    74  68  82 SE2       29.94R
NEWBERRY       CLEAR     72  68  88 CALM      30.00R
AIKEN          FAIR      72  66  83 E5        30.00F
BARNWELL       FAIR      72  72 100 CALM      29.97R
MANNING        FAIR      70  68  94 CALM      29.95F
LANCASTER      CLEAR     70  70 100 MISG      29.98S
WINNSBORO      CLOUDY    72  66  83 N3        29.98R


...EASTERN AND COASTAL SOUTH CAROLINA...

CITY           SKY/WX    TMP DP  RH WIND       PRES   REMARKS
MYRTLE BEACH   CLOUDY    73  64  73 N8        29.95S
N MYRTLE BCH   MOCLDY    74  71  91 N7        29.92S
CONWAY         FAIR      70  68  94 CALM      29.94S
MARION         FAIR      70  68  94 NE6       29.95S
HARTSVILLE     FAIR      70  68  94 E3        29.96S
FLORENCE       PTCLDY    74  69  85 E3        29.96R
DARLINGTON     CLEAR     73  71  93 CALM      29.96S
CHARLESTON APT PTCLDY    74  70  87 CALM      29.95S
MOUNT PLEASANT FAIR      72  72 100 CALM      29.95S FOG
WALTERBORO     PTCLDY    75  75 100 E5        29.96S
BEAUFORT       CLEAR     75  72  90 SW6       29.95S


...EASTERN GEORGIA...

CITY           SKY/WX    TMP DP  RH WIND       PRES   REMARKS
AUGUSTA BUSH F MOCLDY    74  69  85 CALM      29.95R
AUGUSTA DANIEL CLEAR     79  66  64 SE6       29.97R
THOMSON        CLEAR     74  71  91 CALM      30.01R
WASHINGTON     FAIR      75  72  88 NE3       29.98R
CLAXTON        FAIR      73  71  94 CALM      29.96S
SYLVANIA       CLOUDY    79  71  77 S5        29.98R
STATESBORO     CLEAR     75  72  89 CALM      29.95S
SAVANNAH       PTCLDY    75  71  87 S3        29.95F


...SOUTHERN NORTH CAROLINA...

CITY           SKY/WX    TMP DP  RH WIND       PRES   REMARKS
CHARLOTTE      PTCLDY    69  66  90 NW6       29.99F
WADESBORO      CLEAR     70  69  98 CALM      29.97S
ROCKINGHAM     PTCLDY    73  69  88 CALM      29.97S
RUTHERFORDTON  CLOUDY    67  67 100 NW3       30.01F
ASHEVILLE      CLOUDY    68  63  84 S3        30.07S

$$




USA.gov is the U.S. government's official web portal to all federal, state and local government web resources and services.